Weather History for Montague, CA

Change the Weather History Date:

Monday, December 17, 2012

  Actual Average Record
Temperature  
Mean Temperature 35 °F 35 °F  
Max Temperature 45 °F 44 °F 60 °F (1994)
Min Temperature 24 °F 26 °F 0 °F (2008)
Degree Days  
Heating Degree Days 30 30  
Month to date heating degree days 483 508  
Since 1 July heating degree days 1468 1814  
Cooling Degree Days 0 0  
Month to date cooling degree days 0 0  
Year to date cooling degree days 622 544  
Moisture  
Dew Point 30 °F    
Average Humidity 75    
Maximum Humidity 85    
Minimum Humidity 53    
Precipitation  
Precipitation 0.08 in 0.09 in 2.07 in (1982)
Month to date precipitation 2.18 1.43  
Year to date precipitation 12.12 17.24  
Sea Level Pressure  
Sea Level Pressure 29.94 in    
Wind  
Wind Speed 9 mph (WSW)    
Max Wind Speed 29 mph    
Max Gust Speed 36 mph    
Visibility 10 miles    
Events Rain    
T = Trace of Precipitation, MM = Missing Value Source: NWS Daily Summary

Daily Weather History Graph

Daily Weather History Graph

Search for Another Location

Airport:

Trip Planner

Search our weather history database for the weather conditions in past years. The results will help you decide how hot, cold, wet, or windy it might be!

Date:

Astronomy

Dec. 17, 2012 Rise Set
Actual Time 7:31 AM PST 4:40 PM PST
Civil Twilight 7:00 AM PST 5:12 PM PST
Nautical Twilight 6:25 AM PST 5:47 PM PST
Astronomical Twilight 5:51 AM PST 6:21 PM PST
Moon 10:39 AM PST (12/17) 10:12 PM PST (12/17)
Length of Visible Light 10h 12m
Length of Day
9h 08m
Waxing Crescent, 26% of the Moon is Illuminated
Dec 17
Waxing Crescent
Dec 19
First Quarter
Dec 28
Full
Jan 4
Last Quarter
Jan 11
New

Hourly Weather History & Observations

Time (PST) Temp. Windchill Dew Point Humidity Pressure Visibility Wind Dir Wind Speed Gust Speed Precip Events Conditions
12:53 AM 41.0 °F 31.9 °F 35.1 °F 79% 29.68 in 10.0 mi South 19.6 mph 24.2 mph 0.02 in   Partly Cloudy
1:53 AM 42.1 °F 34.9 °F 35.1 °F 76% 29.71 in 10.0 mi WSW 13.8 mph 18.4 mph 0.00 in Rain Light Rain
2:53 AM 41.0 °F 34.3 °F 35.1 °F 79% 29.73 in 10.0 mi WSW 11.5 mph - 0.00 in   Overcast
3:36 AM 41.0 °F 33.9 °F 35.6 °F 81% 29.71 in 9.0 mi West 12.7 mph - 0.02 in Rain Light Rain
4:53 AM 39.0 °F 34.0 °F 36.0 °F 89% 29.79 in 10.0 mi SW 6.9 mph - 0.04 in Rain Light Rain
5:53 AM 37.9 °F 30.9 °F 35.1 °F 89% 29.83 in 10.0 mi WSW 10.4 mph - 0.00 in Rain Light Rain
6:53 AM 39.0 °F 32.8 °F 35.1 °F 86% 29.86 in 10.0 mi SW 9.2 mph - 0.00 in   Overcast
7:53 AM 39.0 °F 32.8 °F 34.0 °F 82% 29.90 in 10.0 mi WSW 9.2 mph - 0.00 in Rain Light Rain
8:53 AM 39.9 °F 34.5 °F 34.0 °F 79% 29.92 in 10.0 mi West 8.1 mph - 0.00 in   Clear
9:53 AM 41.0 °F 34.3 °F 34.0 °F 76% 29.97 in 10.0 mi West 11.5 mph - N/A   Scattered Clouds
10:53 AM 43.0 °F 36.0 °F 34.0 °F 71% 29.99 in 10.0 mi West 13.8 mph - 0.00 in   Scattered Clouds
11:53 AM 43.0 °F 37.7 °F 30.9 °F 62% 29.99 in 10.0 mi West 9.2 mph - N/A   Partly Cloudy
12:53 PM 41.0 °F 33.1 °F 30.0 °F 65% 29.99 in 10.0 mi WNW 15.0 mph - N/A   Mostly Cloudy
1:53 PM 42.1 °F 34.9 °F 27.0 °F 55% 29.98 in 10.0 mi WSW 13.8 mph - 0.00 in   Clear
4:53 PM 35.1 °F 30.1 °F 25.0 °F 67% 30.03 in 10.0 mi North 5.8 mph - N/A   Clear
5:53 PM 35.1 °F 31.0 °F 25.0 °F 67% 30.04 in 10.0 mi Variable 4.6 mph - N/A   Clear
6:53 PM 35.1 °F - 24.1 °F 64% 30.06 in 10.0 mi Calm Calm - N/A   Clear
7:53 PM 33.1 °F 28.7 °F 23.0 °F 66% 30.07 in 10.0 mi NNE 4.6 mph - N/A   Scattered Clouds
8:53 PM 30.0 °F 24.1 °F 23.0 °F 75% 30.08 in 10.0 mi North 5.8 mph - N/A   Clear
9:53 PM 30.0 °F - 23.0 °F 75% 30.07 in 10.0 mi Calm Calm - N/A   Clear
10:53 PM 26.1 °F 19.4 °F 21.9 °F 84% 30.09 in 10.0 mi South 5.8 mph - N/A   Partly Cloudy
11:53 PM 25.0 °F 20.7 °F 21.0 °F 85% 30.09 in 10.0 mi West 3.5 mph - N/A   Clear